This is the latest recevied weather packets stored in our database for station/object N2WH. If no packets are shown the sender has not sent any weather packets the latest 10 day(s).
| Time | Temp. | Humidity | Pressure | Rain* | Wind** | Luminosity | Snow |
|---|---|---|---|---|---|---|---|
| 1777760954 | 12.78° C | 40% | 1011.3 hPa | 0 mm | - | 31 W/m² | - |
| 1777760650 | 12.78° C | 40% | 1011.5 hPa | 0 mm | - | 39 W/m² | - |
| 1777760345 | 13.33° C | 39% | 1011.6 hPa | 0 mm | - | 52 W/m² | - |
| 1777760042 | 13.33° C | 39% | 1011.4 hPa | 0 mm | - | 54 W/m² | - |
| 1777759739 | 13.89° C | 40% | 1011.5 hPa | 0 mm | - | 62 W/m² | - |
| 1777759435 | 13.89° C | 38% | 1011.2 hPa | 0 mm | - | 72 W/m² | - |
| 1777759132 | 13.89° C | 38% | 1011.4 hPa | 0 mm | - | 79 W/m² | - |
| 1777758830 | 13.89° C | 37% | 1011.4 hPa | 0 mm | - | 79 W/m² | - |
| 1777758526 | 14.44° C | 41% | 1011.1 hPa | 0 mm | - | 88 W/m² | - |
| 1777758223 | 13.89° C | 39% | 1011.2 hPa | 0 mm | - | 83 W/m² | - |
| 1777757920 | 14.44° C | 39% | 1011.3 hPa | 0 mm | - | 71 W/m² | - |
| 1777757617 | 14.44° C | 39% | 1011.2 hPa | 0 mm | - | 70 W/m² | - |
| 1777757316 | 14.44° C | 37% | 1011 hPa | 0 mm | - | 78 W/m² | - |
| 1777757014 | 13.89° C | 40% | 1010.9 hPa | 0 mm | - | 110 W/m² | - |
| 1777756711 | 13.89° C | 39% | 1011 hPa | 0 mm | - | 86 W/m² | - |
| 1777756406 | 14.44° C | 39% | 1010.9 hPa | 0 mm | - | 85 W/m² | - |
| 1777756104 | 15° C | 39% | 1010.9 hPa | 0 mm | - | 88 W/m² | - |
| 1777755801 | 14.44° C | 38% | 1010.8 hPa | 0 mm | - | 204 W/m² | - |
| 1777755498 | 15° C | 37% | 1010.8 hPa | 0 mm | - | 130 W/m² | - |
| 1777755194 | 14.44° C | 39% | 1010.9 hPa | 0 mm | - | 150 W/m² | - |
| 1777754891 | 13.89° C | 40% | 1011.1 hPa | 0 mm | - | 134 W/m² | - |
| 1777754589 | 13.89° C | 40% | 1010.9 hPa | 0 mm | - | 131 W/m² | - |
| 1777754286 | 13.89° C | 40% | 1011 hPa | 0 mm | - | 111 W/m² | - |
| 1777753984 | 15° C | 39% | 1010.9 hPa | 0 mm | - | 149 W/m² | - |
| 1777753683 | 15° C | 37% | 1011.1 hPa | 0 mm | - | 177 W/m² | - |
* Rain latest hour (hover to see other rain measurements)
** Current wind speed in m/s (hover to see current wind gust speed)